www.pogodaiklimat.ru

Погода и климат >> Архив погоды >> Россия >> Мурманская область >> Териберка


АРХИВ ПОГОДЫ в Териберке

Время (UTC), дата Ветер
(напр.,м/с)
 
Видим.   Явления Облачность Т
(С)
Тd
(С)
f
(%)
Тe
(С)
Тes
(С)
Комфортность P
(гПа)
Po
(гПа)
Тmin
(С)
Tmax
(С)
R
(мм)
R24
(мм)
S
(см)
00 17.01 ЮВ 2 20 км 9/5 600 м
[Sc Ac trans]
-6.0 -7.1 92 -10 -10 994.0 990.2
06 17.01 В 7-9
{10}
20 км слаб. снег 10/8 600 м
[Sc As op]
-2.4 -4.0 89 -10 -10 990.8 987.0 -6.7 0.2 17
12 17.01 ЮВ 5-6
{13}
20 км слаб. ливневой снег 9/8 300 м
[Cb cap Ac trans]
-3.5 -4.0 96 -11 -11 990.8 987.0
18 17.01 В 3 20 км в посл. час ливневой снег 8/5 300 м
[Cb cap Ci sp]
-6.2 -7.0 94 -12 -12 991.2 987.4 -2.1 8
00 18.01 ЮЗ 2 10 км слаб. ливневой снег 9/9 300 м
[Cb cap]
-7.0 -7.5 96 -12 -12 992.4 988.6
06 18.01 ЮВ 2 20 км {ливн. осадки} 9/9 600 м
[Cb cap]
-5.5 -6.9 90 -10 -10 994.4 990.6 -7.2 1 20
12 18.01 Ю 4 20 км {ливн. осадки} 8/4 600 м
[Cb cap Ac trans Cs]
-8.5 -9.6 92 -15 -15 996.6 992.7
18 18.01 Ю 4 20 км 6/1 300 м
[Sc Ac trans Cs]
-12.1 -12.7 95 -19 -19 998.6 994.7 -4.3 0.3
00 19.01 Ю 3 20 км 8/0
[Cs]
-12.8 -14.1 90 -19 -19 1000.3 996.3
06 19.01 Ю 7 20 км 8/0
[Ac trans Cs]
-11.0 -13.0 85 -20 -20 1000.9 996.9 -14.7 20
12 19.01 Ю 4-5
{11}
20 км {метель} 8/1 600 м
[Sc Ac trans Cs]
-13.4 -15.4 85 -21 -21 1002.7 998.7
18 19.01 Ю 4 20 км 8/3 600 м
[Sc Ac trans Cs]
-14.9 -17.6 80 -23 -23 1003.7 999.7 -11.0
00 20.01 Ю 4 20 км 3/0
[Cs]
-16.7 -18.0 90 -25 -25 1005.7 1001.7
06 20.01 ЮВ 3 20 км 8/3 600 м
[Cb cap Ac trans]
-13.2 -18.4 65 -19 -19 1005.7 1001.7 -17.2 20
12 20.01 ЮЗ 7 20 км 8/3 600 м
[Cb cap Ac trans Cs]
-8.2 -16.3 52 -17 -17 1006.5 1002.5
18 20.01 З 7 20 км 8/1 600 м
[Cb cap Ac trans Cs]
-8.3 -13.5 66 -17 -17 1006.1 1002.1 -7.1
00 21.01 З 9-11
{12}
20 км позёмок {ливн. осадки} 8/1 600 м
[Cb cap Ac trans Cs]
-8.7 -11.6 79 -19 -19 1004.9 1000.9
06 21.01 З 7-9
{13}
20 км {метель} 3/1 600 м
[Cb cap Ci sp]
-10.7 -14.3 75 -20 -20 1003.0 999.0 -10.9 0.0 16
12 21.01 ЮЗ 5-6
{10}
4000 м слаб. ливневой снег {метель} 9/8 300 м
[Cb cap Ac trans]
-9.8 -11.9 85 -18 -18 1002.1 998.1
18 21.01 Ю 4 20 км {ливн. осадки} 9/6 600 м
[Cb cap Ci sp]
-8.8 -10.3 89 -16 -16 1003.1 999.1 -8.0 1
00 22.01 СВ 8-9
{12}
20 км позёмок 6/6 600 м
[Cb cap]
-3.5 -8.7 67 -12 -12 1003.7 999.8
06 22.01 Ю 3 20 км {метель} 10/8 600 м
[Cb cap Ac und]
-8.5 -11.8 77 -14 -14 1003.3 999.3 -8.8 20
12 22.01 Ю 2 20 км 9/3 600 м
[Sc Ac As Ci sp]
-11.5 -14.3 80 -16 -16 1002.9 998.9
18 22.01 Ю 3 20 км 4/3 600 м
[Sc Ci sp]
-14.4 -15.7 90 -21 -21 1003.8 999.8 -8.5
00 23.01 Ю 3 20 км 4/3 300 м
[Cb cap Ci sp]
-14.6 -15.9 90 -21 -21 1006.6 1002.6
06 23.01 В 4-7
{12}
4000 м слаб. ливневой снег {метель} 10/10 300 м
[Cb cap]
-3.1 -5.8 82 -9 -9 1007.2 1003.3 -14.9 2 21
12 23.01 В 14-17
{19}
4000 м слаб. ливневой снег {метель} 9/9 300 м
[Cb cap]
-4.0 -5.5 89 -15 -15 1009.8 1005.9
18 23.01 С 6-8
{15}
20 км слаб. ливневой снег {метель} 9/9 600 м
[Cb cap]
-2.4 -8.4 63 -9 -9 1011.8 1007.9 -2.3 1

 

Местоположение метеостанции Териберка (Мурманская область, Россия): широта 69.20 долгота 35.12 высота над уровнем моря 30 м.

В архиве по умолчанию представлена погода в Териберке за последнюю неделю. Архивные данные за месяц целиком и за предыдущие месяцы, начиная с января 2011 года, Вы можете получить, выбрав интересующий диапазон дат из раскрывающегося списка и нажав кнопку "Ввод!".


*Определитесь, кто Вы:
робот инопланетянин человек

Внимание! Время в таблицах - всемирное. Для получения местного времени необходимо прибавить поправку, которая равна 3 ч.

Смотрите также архив погоды в соседних городах и на ближайших метеорологических станциях:

Погода в Дальних Зеленцах (Мурманская область, Россия) (39 км)
Погода в Туманной (Мурманская область, Россия) (41 км)
Погода в Полярном (Мурманская область, Россия) (65 км)
Погода в Североморске (Мурманская область, Россия) (67 км)
Погода в Мурманске (Мурманская область, Россия) (86 км)
Погода в Ура-Губе (Мурманская область, Россия) (92 км)
Погода в Цып-Наволоке (Мурманская область, Россия) (98 км)
Погода в Мурманске аэропорт (Мурманская область, Россия) (114 км)
Погода в Пулозере (Мурманская область, Россия) (120 км)
Погода в Ловозере (Мурманская область, Россия) (134 км)

Пояснения к столбцам:

Ветер - указаны скорость ветра в м/с - средняя за 10 мин, порывы в срок и между сроками (в фигурных скобках) и направление, откуда дует ветер: С - северный, СВ - северо-восточный, В - восточный, ЮВ - юго-восточный, Ю - южный, ЮЗ - юго-западный, З - западный, СЗ - северо-западный.
Видимость - горизонтальная дальность видимости в метрах или километрах. При видимости от 1 до 10 км при отсутствии осадков обычно наблюдается дымка, при ухудшении видимости до 1 км и менее - туман. В сухую погоду видимость может ухудшаться дымом, пылью или мглою.
Явления - указаны атмосферные явления, наблюдавшиеся в срок или в последний час перед сроком; фигурными скобками обозначены явления, наблюдавшиеся между сроками (за 1-3 часа до срока); квадратными скобками обозначены град или гололедные отложения с указанием их диаметра в мм.
Облачность - указаны через наклонную черту общая и нижняя облачность в баллах и высота нижней границы облаков в метрах; квадратными скобками обозначены формы облаков: Ci - перистые, Cs - перисто-слоистые, Cc - перисто-кучевые, Ac - высококучевые, As - высокослоистые, Sc - слоисто-кучевые, Ns - слоисто-дождевые, Cu - кучевые, Cb - кучево-дождевые. Подробнее классификацию облаков см. в Атласе облаков (PDF).
T - Температура воздуха - температура, измеренная на высоте 2 м над землей.
Td - Температура точки росы - температура, при понижении до которой содержащийся в воздухе водяной пар достигнет насыщения.
f - Относительная влажность воздуха - влажноcть воздуха, измеренная на высоте 2 м над землей.
Te - Эффективная температура - температура, которую ощущает одетый по сезону человек в тени. Характеристика душности погоды. При расчете учитывается влияние влажности воздуха и скорости ветра на теплоощущения человека.
Tes - Эффективная температура на солнце - температура, которую ощущает человек, с поправкой на солнечный нагрев. Характеристика знойности погоды. Зависит от высоты солнца над горизонтом, облачности и скорости ветра. Ночью, в пасмурную погоду, а также при ветре 12 м/с и более поправка равна нулю.
P - Атмосферное давление - приведенное к уровню моря атмосферное давление.
Po - Атмосферное давление - измеренное на уровне метеостанции атмосферное давление.
Tmin - Минимальная температура - минимум температуры воздуха на высоте 2 м над землей.
Tmax - Максимальная температура - максимум температуры воздуха на высоте 2 м над землей.
R - Количество осадков - Количество выпавших осадков за период времени, мм. При наведении курсора мыши на число - период времени, за который выпало указанное количество осадков.
R24 - Количество осадков - Количество выпавших осадков за 24 часа, мм.
S - Снежный покров - Высота снежного покрова, см. При наведении курсора мыши на число - состояние снежного покрова и степень покрытия местности в баллах.